Regional Weather Roundup
Issued by NWS Goodland, KS

Home | Current Version | Previous Version | Text Only | Print | Product List | Glossary Off
Versions: 1 2 3 4 5 6 7 8 9 10 11 12 13 14 15 16 17 18 19 20 21 22 23 24 25 26 27 28 29 30 31 32 33 34 35 36 37 38 39 40 41 42 43 44 45 46 47 48 49 50

000
ASUS43 KGLD 020559
RWRGLD

GOODLAND FORECAST AREA HOURLY WEATHER ROUNDUP
NATIONAL WEATHER SERVICE GOODLAND KS
1200 AM MDT THU JUL 02 2015

...OFFICIAL OBSERVATIONS...

CITY           SKY/WX    TMP DP  RH WIND       PRES   REMARKS
GOODLAND KS    CLOUDY    68  61  78 W6        30.04F
HILL CITY KS   MOCLDY    75  62  64 CALM      29.92F
IMPERIAL NEB   MOCLDY    76  59  55 NW15      30.03S
MCCOOK NEB     MOCLDY    74  65  73 SW8       29.96S
AKRON CO       PTCLDY    66  57  72 SE13      30.12F
BURLINGTON CO  MOCLDY    68  60  75 W3        30.08R
LIMON CO       PTCLDY    61  58  90 CALM      30.17F
$$

...UNOFFICIAL OBSERVATIONS...

CITY           SKY/WX    TMP DP  RH WIND       PRES   REMARKS
COLBY KS       CLEAR     73  63  68 CALM      30.03S
NORTON KS      CLEAR     72  61  68 CALM      29.92F
$$



USA.gov is the U.S. government's official web portal to all federal, state and local government web resources and services.